[[[{"header":{"parameterUnit":"kt","parameterCategory":2,"dx":1,"dy":1,"la1":30.253999710083008,"la2":30.299108505249023,"lo1":-89.0895004272461,"lo2":-89.04439544677734,"nx":28,"ny":28,"refTime":"2022-09-19T21:00:00:Z","depth":"0","parameterNumber":2,"parameterNumberName":"U-component_of_CURRENTS"},"data":[0.0181,0.0213,0.0264,0.023,0.0212,0.0172,0.0159,0.0191,0.0172,0.0108,0.0041,-0.0007,-0.0084,-0.0517,-0.066,-0.0675,-0.0685,-0.0804,-0.079,-0.0632,-0.0624,-0.0616,-0.0608,-0.0706,-0.0707,-0.0769,-0.0771,-0.0773,0.0222,0.0289,0.0293,0.0283,0.0242,0.0232,0.0184,0.0187,0.0143,0.0064,-0.0013,-0.0126,-0.0199,-0.0283,-0.0445,-0.0563,-0.0508,-0.0609,-0.0625,-0.0545,-0.0398,-0.0381,-0.0431,-0.0431,-0.0431,-0.0431,-0.0431,-0.0431,0.0314,0.0327,0.0365,0.0345,0.0307,0.0264,0.0233,0.0191,0.0118,0.0028,-0.008,-0.0166,-0.0257,-0.0381,-0.0421,-0.049,-0.0559,-0.0476,-0.059,-0.0658,-0.0595,-0.0453,-0.0547,-0.0548,-0.0548,-0.0549,-0.0549,0,0.0381,0.0417,0.0413,0.0403,0.0368,0.0317,0.0254,0.0216,0.0125,0.0044,-0.0082,-0.0156,-0.0305,-0.0365,-0.0451,-0.0467,-0.0495,-0.0469,-0.0468,-0.0449,-0.0514,-0.0437,-0.0261,-0.0356,-0.0355,-0.0355,-0.0355,-0.0354,0.0462,0.0464,0.0465,0.0448,0.0433,0.0371,0.0323,0.0254,0.0195,0.0038,-0.0024,-0.0149,-0.0237,-0.0365,-0.042,-0.0461,-0.0454,-0.0453,-0.0401,-0.0391,-0.0484,-0.0546,-0.0477,-0.035,-0.0351,-0.0351,-0.0351,0,0.0507,0.0536,0.0502,0.0477,0.0457,0.0405,0.0325,0.026,0.0184,0.0064,0.0025,-0.0108,-0.0196,-0.0246,-0.0299,-0.0326,-0.0394,-0.0373,-0.0298,-0.0291,-0.0351,-0.0436,-0.0655,-0.0593,-0.0461,-0.0463,-0.0465,0,0.0573,0.0536,0.0565,0.0544,0.0473,0.0443,0.0346,0.0282,0.0186,0.0094,0.0021,-0.0074,-0.0133,-0.0199,-0.0188,-0.0257,-0.025,-0.0256,-0.0256,-0.019,-0.0188,-0.0172,-0.0248,-0.0217,-0.0216,-0.0216,-0.0215,0,0.0637,0.0604,0.0582,0.0564,0.0512,0.0465,0.0415,0.0312,0.0249,0.0124,0.0071,-0.0048,-0.011,-0.013,-0.0147,-0.0114,-0.0212,-0.0169,-0.0215,-0.0216,-0.016,-0.0155,-0.0259,-0.0215,-0.0215,-0.0214,-0.0214,0,0.0686,0.069,0.0648,0.0602,0.0584,0.0525,0.0419,0.035,0.0232,0.0189,0.0093,0.0047,-0.0057,-0.0004,-0.0094,-0.0058,-0.005,-0.0054,-0.0056,-0.008,-0.0037,-0.0018,-0.014,-0.0135,-0.0054,-0.0052,-0.0051,0,0.0744,0.0727,0.0741,0.0663,0.0639,0.061,0.053,0.0454,0.0395,0.03,0.0225,0.0126,0.0138,0.0098,0.0061,0.003,0.0,0.0046,0.0035,0.0034,0.0017,-0.0115,-0.0057,-0.0119,-0.0035,-0.0037,-0.0038,0,0.0801,0.0836,0.0826,0.0813,0.0771,0.0729,0.0646,0.0562,0.0506,0.0429,0.0335,0.021,0.02,0.0153,0.0122,0.0096,0.0029,0.0142,0.0142,0.0138,-0.0033,-0.0084,-0.01,0.0047,0.0044,0.0043,-0.0025,0,0.0884,0.0881,0.0866,0.0856,0.0817,0.0773,0.0734,0.0682,0.0657,0.061,0.0485,0.0417,0.0324,0.029,0.0279,0.0175,0.0201,0.0224,0.0288,0.0201,0.0182,0.0171,0.0319,0.0321,0.0322,0.0323,0,0,0.0926,0.0944,0.0972,0.095,0.092,0.0916,0.087,0.0823,0.075,0.0708,0.0726,0.0551,0.0513,0.0376,0.0338,0.0314,0.0316,0.0351,0.0238,0.0229,0.022,0.0198,0.0186,0.0325,0.0326,0.0326,0.0327,0,0.0973,0.1,0.0999,0.0976,0.0954,0.0929,0.0923,0.088,0.085,0.0761,0.0737,0.0662,0.0565,0.0503,0.0463,0.0342,0.038,0.0328,0.0284,0.0251,0.0239,0.0229,0.0205,0.0194,0.033,0.033,0.033,0,0.1022,0.1041,0.1046,0.1036,0.1012,0.0968,0.0993,0.0951,0.0899,0.0899,0.0807,0.0762,0.0703,0.0601,0.0561,0.0594,0.0452,0.0488,0.0479,0.0487,0.0456,0.0442,0.043,0.0597,0.0598,0.0599,0,0,0.105,0.1068,0.1059,0.1042,0.1034,0.1006,0.0978,0.0968,0.0923,0.0902,0.0863,0.0813,0.0738,0.0709,0.0646,0.0562,0.0571,0.052,0.0508,0.0497,0.0498,0.0465,0.0451,0.0602,0.0602,0.0602,0,0,0.105,0.108,0.1093,0.1083,0.1049,0.1007,0.0973,0.097,0.0911,0.0915,0.0892,0.0879,0.0786,0.0777,0.0823,0.067,0.0722,0.0712,0.0678,0.0662,0.065,0.0667,0.0858,0,0,0,0,0,0.1095,0.1083,0.1095,0.1093,0.1062,0.1007,0.0995,0.0975,0.0993,0.0963,0.0921,0.0943,0.0787,0.0827,0.0813,0.0761,0.0645,0.0638,0.063,0.0566,0.0549,0.0535,0,0,0,0,0,0,0.1094,0.1095,0.1094,0.1063,0.1054,0.1009,0.1031,0.1023,0.0996,0.0997,0.0946,0.0941,0.0922,0.0835,0.0822,0.0772,0.0862,0.0642,0.0636,0.063,0.056,0.0547,0.0535,0,0,0,0,0,0.1093,0.1094,0.1066,0.106,0.1052,0.1019,0.1033,0.1027,0.1001,0.0964,0.0957,0.0991,0.0922,0.091,0.0827,0.0778,0.0871,0.0866,0.0638,0.0633,0.0628,0.0553,0,0,0,0,0,0,0.1093,0.1066,0.1062,0.1056,0.1082,0.1019,0.1016,0.103,0.0969,0.0963,0.1008,0.101,0.092,0.0912,0.0903,0.0779,0.0878,0.0873,0.087,0.0634,0.063,0.0627,0,0,0,0,0,0,0.1065,0.1062,0.1059,0.1088,0.1085,0.102,0.1017,0.0962,0.0969,0.1016,0.1016,0.101,0.0943,0.0913,0.0906,0.0818,0.0883,0.0879,0.0876,0.0874,0.0631,0.0628,0,0,0,0,0,0,0.1062,0.1059,0.1089,0.1087,0.1084,0.1011,0.0969,0.0942,0.0985,0.1019,0.099,0.0993,0.0945,0.0937,0.0908,0.0823,0.0819,0.0883,0.088,0.0878,0.0876,0,0,0,0,0,0,0,0.1059,0.1105,0.1103,0.1086,0.1084,0.1001,0.0999,0.0996,0.0986,0.0988,0.099,0.0992,0.091,0.0905,0.09,0.0827,0,0,0.0884,0.0881,0,0,0,0,0,0,0,0,0.1103,0.1104,0.1103,0.1102,0.1101,0.1,0.0999,0.0997,0.0986,0.0988,0.0989,0.0991,0.0909,0.0904,0.09,0,0,0,0,0,0,0,0,0,0,0,0,0,0,0,0.1103,0.1102,0,0.1,0.0999,0.0997,0.0986,0.0988,0.0989,0.099,0.0907,0.0904,0.0901,0,0,0,0,0,0,0,0,0,0,0,0,0,0,0,0,0,0,0,0,0,0,0,0,0,0,0,0,0,0,0,0,0,0,0,0,0,0,0,0,0,0,0,0,0,0,0,0,0,0,0,0,0,0,0,0,0,0,0,0,0,0,0,0,0,0,0,0,0]}],[{"header":{"parameterUnit":"kt","parameterCategory":2,"dx":1,"dy":1,"la1":30.253999710083008,"la2":30.299108505249023,"lo1":-89.0895004272461,"lo2":-89.04439544677734,"nx":28,"ny":28,"refTime":"2022-09-19T21:00:00:Z","depth":"0","parameterNumber":3,"parameterNumberName":"V-component_of_CURRENTS"},"data":[-0.4201,-0.4318,-0.4382,-0.4539,-0.461,-0.4685,-0.4708,-0.471,-0.4685,-0.4503,-0.428,-0.4082,-0.2758,-0.0586,0.1087,0.1427,0.2126,0.21,0.2403,0.1813,0.171,0.1612,0.1675,0.2618,0.2622,0.3513,0.3525,0.3534,-0.415,-0.4213,-0.4325,-0.4459,-0.4547,-0.4567,-0.4628,-0.4653,-0.4694,-0.4613,-0.4575,-0.4027,-0.3155,-0.2279,-0.0917,-0.0067,0.0142,0.05,0.0721,0.0884,-0.0329,-0.0339,0.0192,0.0191,0.0191,0.019,0.0189,0.0189,-0.406,-0.4128,-0.4243,-0.4375,-0.4452,-0.4519,-0.4563,-0.4614,-0.4637,-0.4589,-0.4529,-0.4381,-0.3721,-0.2969,-0.2463,-0.1321,-0.1449,-0.0884,-0.0594,-0.0647,-0.0398,-0.1944,-0.1602,-0.1604,-0.1606,-0.1608,-0.161,0,-0.4017,-0.406,-0.4154,-0.4295,-0.4376,-0.445,-0.4521,-0.4543,-0.4523,-0.4515,-0.4471,-0.4376,-0.3904,-0.3441,-0.2847,-0.2436,-0.1632,-0.1958,-0.138,-0.0777,-0.0808,-0.0494,-0.2005,-0.1688,-0.1691,-0.1693,-0.1694,-0.1696,-0.3927,-0.4013,-0.4157,-0.4224,-0.4283,-0.4371,-0.4423,-0.4436,-0.4463,-0.4398,-0.4386,-0.4167,-0.4048,-0.3444,-0.3007,-0.2512,-0.2064,-0.2027,-0.204,-0.1564,-0.1195,-0.1205,-0.0996,-0.1725,-0.1722,-0.1718,-0.1716,0,-0.3871,-0.395,-0.4083,-0.42,-0.424,-0.4307,-0.4367,-0.4401,-0.4388,-0.437,-0.4347,-0.4234,-0.3946,-0.3618,-0.3121,-0.2895,-0.2208,-0.2379,-0.2322,-0.2228,-0.1627,-0.1368,-0.0858,-0.0569,-0.2127,-0.2126,-0.2125,0,-0.381,-0.3906,-0.402,-0.4092,-0.42,-0.4239,-0.4314,-0.4333,-0.4316,-0.432,-0.4251,-0.4196,-0.3855,-0.36,-0.3302,-0.2912,-0.2841,-0.2637,-0.2539,-0.2424,-0.2422,-0.1856,-0.1579,-0.249,-0.2493,-0.2495,-0.2497,0,-0.3704,-0.3866,-0.3989,-0.4033,-0.414,-0.4183,-0.4213,-0.4241,-0.4261,-0.4226,-0.4203,-0.4045,-0.3919,-0.3617,-0.3312,-0.3319,-0.2869,-0.2811,-0.2626,-0.2626,-0.2392,-0.2383,-0.1677,-0.25,-0.2501,-0.2502,-0.2503,0,-0.3651,-0.375,-0.391,-0.4006,-0.404,-0.4099,-0.4157,-0.4199,-0.4182,-0.4165,-0.4099,-0.4018,-0.3876,-0.3781,-0.3413,-0.3511,-0.3268,-0.3082,-0.3063,-0.3071,-0.2994,-0.2584,-0.2461,-0.1907,-0.2835,-0.2839,-0.2842,0,-0.3514,-0.3694,-0.3738,-0.3872,-0.3959,-0.3957,-0.4011,-0.4044,-0.4041,-0.4035,-0.3929,-0.3897,-0.3836,-0.3785,-0.3649,-0.3436,-0.3286,-0.3452,-0.3004,-0.2993,-0.303,-0.2974,-0.2816,-0.2527,-0.2888,-0.2883,-0.2879,0,-0.3414,-0.3561,-0.3583,-0.3638,-0.3723,-0.3781,-0.3842,-0.3898,-0.3919,-0.3899,-0.3897,-0.3845,-0.3774,-0.3745,-0.3664,-0.3532,-0.3357,-0.3435,-0.3424,-0.33,-0.2977,-0.303,-0.3003,-0.3242,-0.3237,-0.3234,-0.2916,0,-0.3357,-0.3438,-0.3494,-0.3594,-0.3644,-0.3719,-0.3751,-0.3775,-0.3758,-0.3762,-0.3742,-0.3673,-0.3631,-0.36,-0.3577,-0.3489,-0.3433,-0.337,-0.3319,-0.332,-0.3184,-0.3156,-0.3466,-0.3464,-0.3463,-0.3462,0,0,-0.3214,-0.3332,-0.336,-0.3451,-0.3499,-0.3488,-0.3572,-0.3589,-0.3629,-0.3638,-0.3603,-0.3548,-0.3511,-0.3486,-0.3503,-0.3482,-0.337,-0.3487,-0.3348,-0.3336,-0.3324,-0.3195,-0.3169,-0.346,-0.3459,-0.3459,-0.3458,0,-0.3208,-0.3245,-0.3326,-0.3375,-0.345,-0.3465,-0.3485,-0.3532,-0.3534,-0.3578,-0.3513,-0.3479,-0.3483,-0.3441,-0.3418,-0.3467,-0.3336,-0.3451,-0.352,-0.3342,-0.3332,-0.3323,-0.3194,-0.3172,-0.3455,-0.3456,-0.3456,0,-0.3129,-0.3189,-0.3223,-0.3321,-0.3353,-0.3421,-0.3379,-0.3441,-0.3481,-0.341,-0.3449,-0.3404,-0.3363,-0.3376,-0.3375,-0.3358,-0.3292,-0.3368,-0.3374,-0.3397,-0.3211,-0.3201,-0.3193,-0.3292,-0.3292,-0.3291,0,0,-0.3117,-0.3183,-0.3249,-0.3321,-0.3351,-0.3371,-0.3398,-0.34,-0.3417,-0.3414,-0.3397,-0.3369,-0.335,-0.3346,-0.3335,-0.3359,-0.3262,-0.3351,-0.3359,-0.3365,-0.3391,-0.3209,-0.3201,-0.329,-0.329,-0.329,0,0,-0.3104,-0.3189,-0.3186,-0.3278,-0.3326,-0.3369,-0.3404,-0.339,-0.3393,-0.3377,-0.3334,-0.3328,-0.3336,-0.3316,-0.3308,-0.3307,-0.3271,-0.3274,-0.3328,-0.3337,-0.3345,-0.3377,-0.3241,0,0,0,0,0,-0.3117,-0.3186,-0.3183,-0.3205,-0.3297,-0.3376,-0.3384,-0.3381,-0.3341,-0.3366,-0.3342,-0.3297,-0.3298,-0.3291,-0.329,-0.3291,-0.3277,-0.3279,-0.3282,-0.3356,-0.3366,-0.3375,0,0,0,0,0,0,-0.3126,-0.3152,-0.3182,-0.3232,-0.3254,-0.3372,-0.3317,-0.3316,-0.3338,-0.3331,-0.3304,-0.3296,-0.3269,-0.3288,-0.3288,-0.329,-0.3241,-0.3278,-0.328,-0.3282,-0.336,-0.3368,-0.3375,0,0,0,0,0,-0.3133,-0.3154,-0.3307,-0.323,-0.3248,-0.3269,-0.3313,-0.3313,-0.3315,-0.3303,-0.3295,-0.3313,-0.3271,-0.3267,-0.3288,-0.329,-0.3241,-0.3241,-0.3279,-0.3281,-0.3282,-0.3364,0,0,0,0,0,0,-0.3138,-0.3132,-0.3309,-0.3315,-0.3207,-0.3261,-0.327,-0.331,-0.3282,-0.3279,-0.331,-0.3305,-0.3273,-0.327,-0.3267,-0.3292,-0.3241,-0.3241,-0.3241,-0.328,-0.3282,-0.3283,0,0,0,0,0,0,-0.3121,-0.3136,-0.3311,-0.3283,-0.3284,-0.3253,-0.3262,-0.3271,-0.328,-0.3287,-0.3285,-0.3308,-0.3264,-0.3272,-0.327,-0.3286,-0.3241,-0.3241,-0.3241,-0.3241,-0.3281,-0.3282,0,0,0,0,0,0,-0.3127,-0.3139,-0.3281,-0.3282,-0.3283,-0.333,-0.3257,-0.3337,-0.3304,-0.3285,-0.3297,-0.3295,-0.3266,-0.3264,-0.3272,-0.3289,-0.3287,-0.3241,-0.3241,-0.3241,-0.3241,0,0,0,0,0,0,0,-0.3132,-0.3054,-0.3293,-0.3281,-0.3281,-0.3364,-0.3364,-0.3364,-0.3303,-0.3301,-0.3298,-0.3296,-0.324,-0.3241,-0.3241,-0.3292,0,0,-0.3241,-0.3241,0,0,0,0,0,0,0,0,-0.3048,-0.3053,-0.3293,-0.3295,-0.3296,-0.3364,-0.3364,-0.3364,-0.3303,-0.3301,-0.3299,-0.3297,-0.324,-0.3241,-0.3241,0,0,0,0,0,0,0,0,0,0,0,0,0,0,0,-0.3293,-0.3295,0,-0.3364,-0.3364,-0.3364,-0.3303,-0.3301,-0.3299,-0.3298,-0.3241,-0.3241,-0.3241,0,0,0,0,0,0,0,0,0,0,0,0,0,0,0,0,0,0,0,0,0,0,0,0,0,0,0,0,0,0,0,0,0,0,0,0,0,0,0,0,0,0,0,0,0,0,0,0,0,0,0,0,0,0,0,0,0,0,0,0,0,0,0,0,0,0,0,0,0]}]],[[{"header":{"parameterUnit":"kt","parameterCategory":2,"dx":1,"dy":1,"la1":30.253999710083008,"la2":30.299108505249023,"lo1":-89.0895004272461,"lo2":-89.04439544677734,"nx":28,"ny":28,"refTime":"2022-09-19T21:00:00:Z","depth":"2","parameterNumber":2,"parameterNumberName":"U-component_of_CURRENTS"},"data":[-0.1684,-0.167,-0.167,-0.1626,-0.1588,-0.1459,-0.1374,-0.132,-0.1447,-0.1636,-0.1812,-0.2085,-0.2004,-0.1735,-0.1443,-0.1132,-0.1077,-0.1008,-0.1428,-0.1353,-0.137,-0.1202,-0.1182,0,0,0,0,0,-0.1703,-0.1706,-0.1716,-0.1656,-0.1634,-0.1584,-0.1497,-0.1432,-0.1399,-0.1615,-0.1694,-0.1782,-0.1733,-0.1652,-0.1361,-0.1254,-0.114,-0.1087,-0.0981,-0.0999,-0.1015,-0.0985,-0.0838,-0.0836,-0.0834,-0.0833,0,0,-0.1727,-0.1727,-0.1716,-0.1686,-0.166,-0.1587,-0.1511,-0.1491,-0.1485,-0.1546,-0.162,-0.1729,-0.176,-0.1804,-0.1587,-0.1366,-0.1502,-0.1379,-0.138,-0.1384,-0.1378,-0.1373,-0.1333,-0.1335,-0.1336,-0.1338,-0.1339,0,-0.1714,-0.1708,-0.1696,-0.1677,-0.1642,-0.1589,-0.1547,-0.1541,-0.1533,-0.1581,-0.1616,-0.165,-0.1687,-0.1659,-0.165,-0.1558,-0.1483,-0.1445,-0.1602,-0.1331,-0.1321,-0.1312,-0.1319,-0.1274,-0.1275,-0.1276,-0.1277,-0.1278,-0.1671,-0.1685,-0.1649,-0.1638,-0.1623,-0.1594,-0.1577,-0.1558,-0.1559,-0.1616,-0.1625,-0.167,-0.1699,-0.1687,-0.167,-0.1636,-0.1604,-0.1472,-0.1469,-0.1617,-0.1609,-0.1608,-0.1606,-0.1294,-0.1292,-0.129,-0.1289,0,-0.1644,-0.1634,-0.1629,-0.1611,-0.1597,-0.1593,-0.156,-0.1571,-0.1602,-0.1629,-0.1634,-0.1693,-0.1696,-0.1688,-0.1647,-0.1641,-0.1603,-0.1585,-0.1445,-0.1425,-0.1601,-0.1601,-0.1615,-0.1616,-0.1617,-0.1618,-0.1618,0,-0.1602,-0.1595,-0.1576,-0.158,-0.158,-0.1575,-0.1586,-0.1606,-0.163,-0.165,-0.1684,-0.1695,-0.1693,-0.1682,-0.1635,-0.1614,-0.16,-0.1596,-0.159,-0.1465,-0.1457,-0.1525,-0.1521,-0.1565,-0.1565,-0.1565,-0.1565,0,-0.1561,-0.156,-0.1572,-0.157,-0.1575,-0.1582,-0.1579,-0.1626,-0.1646,-0.1678,-0.169,-0.17,-0.1694,-0.1662,-0.1623,-0.1622,-0.1591,-0.1589,-0.1585,-0.1586,-0.1436,-0.1425,-0.1565,-0.1565,-0.1565,-0.1565,-0.1565,0,-0.1533,-0.1536,-0.156,-0.1543,-0.1544,-0.1561,-0.159,-0.1619,-0.1667,-0.1673,-0.168,-0.1673,-0.1683,-0.1644,-0.1629,-0.1627,-0.1593,-0.1573,-0.1572,-0.1565,-0.1548,-0.1399,-0.1428,-0.155,-0.155,-0.155,-0.155,0,-0.1478,-0.1509,-0.1514,-0.1529,-0.1533,-0.1535,-0.1574,-0.1604,-0.1621,-0.1642,-0.1642,-0.1642,-0.1619,-0.1602,-0.1607,-0.1582,-0.1581,-0.1585,-0.152,-0.1518,-0.1532,-0.1594,-0.1455,-0.1433,-0.1551,-0.1551,-0.1551,0,-0.1444,-0.1456,-0.1457,-0.1448,-0.1469,-0.1485,-0.1528,-0.1562,-0.1578,-0.1585,-0.1599,-0.161,-0.1581,-0.1577,-0.1563,-0.1564,-0.158,-0.1526,-0.1524,-0.151,-0.1561,-0.159,-0.1593,-0.1566,-0.1566,-0.1566,-0.1551,0,-0.1389,-0.1401,-0.1418,-0.1439,-0.1456,-0.1474,-0.149,-0.1509,-0.1497,-0.1506,-0.1519,-0.1508,-0.1497,-0.1507,-0.1492,-0.1515,-0.149,-0.1475,-0.1434,-0.1484,-0.1471,-0.1472,-0.1445,-0.1443,-0.1442,-0.1441,0,0,-0.1325,-0.1361,-0.1369,-0.1392,-0.1396,-0.1393,-0.1412,-0.1433,-0.1443,-0.145,-0.1421,-0.1416,-0.1404,-0.1431,-0.1449,-0.145,-0.143,-0.1419,-0.1466,-0.1469,-0.1472,-0.1463,-0.1465,-0.1439,-0.1438,-0.1438,-0.1437,0,-0.1313,-0.1322,-0.1351,-0.1363,-0.1379,-0.1384,-0.1389,-0.1395,-0.1396,-0.1416,-0.1381,-0.138,-0.1375,-0.1375,-0.1372,-0.1432,-0.1376,-0.1425,-0.146,-0.1456,-0.1461,-0.1465,-0.1457,-0.146,-0.1434,-0.1434,-0.1435,0,-0.1266,-0.1283,-0.1297,-0.1334,-0.1338,-0.1359,-0.1331,-0.1352,-0.1371,-0.1321,-0.1329,-0.1311,-0.1296,-0.1317,-0.1318,-0.13,-0.1331,-0.1325,-0.1332,-0.1313,-0.1305,-0.1311,-0.1317,-0.1239,-0.1239,-0.1238,0,0,-0.1251,-0.1278,-0.1294,-0.133,-0.1333,-0.1332,-0.1343,-0.1334,-0.1333,-0.1327,-0.1304,-0.1284,-0.1283,-0.1278,-0.1271,-0.1295,-0.1268,-0.1303,-0.1312,-0.132,-0.1306,-0.13,-0.1307,-0.1236,-0.1236,-0.1236,0,0,-0.1241,-0.1261,-0.1251,-0.1292,-0.1312,-0.1324,-0.1336,-0.1323,-0.1319,-0.1299,-0.1263,-0.1255,-0.1261,-0.1244,-0.1226,-0.1253,-0.1213,-0.1217,-0.1268,-0.1278,-0.1287,-0.127,-0.1168,0,0,0,0,0,-0.1227,-0.1262,-0.1254,-0.1262,-0.1294,-0.1333,-0.1337,-0.132,-0.1284,-0.1301,-0.1276,-0.1234,-0.1231,-0.1214,-0.121,-0.1227,-0.1213,-0.1217,-0.1221,-0.1291,-0.1303,-0.1313,0,0,0,0,0,0,-0.123,-0.124,-0.1253,-0.1268,-0.1275,-0.1331,-0.1285,-0.1281,-0.1282,-0.1276,-0.1242,-0.1234,-0.1209,-0.1212,-0.121,-0.1226,-0.1169,-0.1215,-0.1218,-0.1222,-0.1295,-0.1305,-0.1313,0,0,0,0,0,-0.1233,-0.124,-0.1296,-0.1267,-0.1274,-0.1265,-0.1282,-0.1279,-0.1273,-0.1248,-0.1239,-0.1258,-0.1211,-0.1205,-0.121,-0.1228,-0.117,-0.117,-0.1217,-0.122,-0.1222,-0.13,0,0,0,0,0,0,-0.1234,-0.1234,-0.1297,-0.1298,-0.1245,-0.1261,-0.1262,-0.1277,-0.1243,-0.1237,-0.1262,-0.1257,-0.1213,-0.1208,-0.1204,-0.1231,-0.1171,-0.1171,-0.117,-0.1219,-0.1221,-0.1223,0,0,0,0,0,0,-0.123,-0.1236,-0.1297,-0.1271,-0.1269,-0.1257,-0.1258,-0.1259,-0.1241,-0.1258,-0.1254,-0.126,-0.1202,-0.1211,-0.1207,-0.1211,-0.1172,-0.1171,-0.1171,-0.1171,-0.1221,-0.1223,0,0,0,0,0,0,-0.1232,-0.1237,-0.127,-0.1269,-0.1267,-0.128,-0.1255,-0.1277,-0.1257,-0.1258,-0.1251,-0.1248,-0.1204,-0.1201,-0.121,-0.1215,-0.1212,-0.1172,-0.1172,-0.1171,-0.1171,0,0,0,0,0,0,0,-0.1234,-0.1207,-0.129,-0.1267,-0.1265,-0.1312,-0.1313,-0.1313,-0.1256,-0.1254,-0.1251,-0.1249,-0.1176,-0.1175,-0.1174,-0.1219,0,0,-0.1172,-0.1172,0,0,0,0,0,0,0,0,-0.1204,-0.1206,-0.129,-0.1291,-0.1291,-0.1313,-0.1313,-0.1313,-0.1256,-0.1254,-0.1252,-0.125,-0.1176,-0.1175,-0.1174,0,0,0,0,0,0,0,0,0,0,0,0,0,0,0,-0.129,-0.1291,0,-0.1313,-0.1313,-0.1313,-0.1256,-0.1254,-0.1252,-0.1251,-0.1175,-0.1175,-0.1174,0,0,0,0,0,0,0,0,0,0,0,0,0,0,0,0,0,0,0,0,0,0,0,0,0,0,0,0,0,0,0,0,0,0,0,0,0,0,0,0,0,0,0,0,0,0,0,0,0,0,0,0,0,0,0,0,0,0,0,0,0,0,0,0,0,0,0,0,0]}],[{"header":{"parameterUnit":"kt","parameterCategory":2,"dx":1,"dy":1,"la1":30.253999710083008,"la2":30.299108505249023,"lo1":-89.0895004272461,"lo2":-89.04439544677734,"nx":28,"ny":28,"refTime":"2022-09-19T21:00:00:Z","depth":"2","parameterNumber":3,"parameterNumberName":"V-component_of_CURRENTS"},"data":[0.0324,0.0317,0.0322,0.0348,0.0361,0.0362,0.031,0.0276,0.0356,0.048,0.0732,0.1158,0.1647,0.1872,0.2035,0.202,0.1733,0.1901,0.1751,0.1773,0.1731,0.1817,0.1909,0,0,0,0,0,0.0331,0.0323,0.0365,0.0417,0.047,0.0447,0.0411,0.0369,0.0254,0.0353,0.0365,0.0963,0.1378,0.1525,0.1899,0.2043,0.2001,0.1756,0.1799,0.177,0.174,0.1803,0.2053,0.2049,0.2046,0.2042,0,0,0.0378,0.0398,0.0456,0.0461,0.0503,0.0513,0.0454,0.0398,0.0313,0.0211,0.0301,0.0469,0.0903,0.1406,0.1427,0.1463,0.1545,0.1557,0.1544,0.1524,0.1584,0.162,0.1774,0.177,0.1767,0.1764,0.1762,0,0.0442,0.0455,0.0504,0.0547,0.0536,0.0552,0.0484,0.042,0.0317,0.0259,0.022,0.0245,0.0494,0.087,0.1058,0.1162,0.1104,0.1211,0.0774,0.1445,0.1482,0.1508,0.1489,0.1597,0.1593,0.1589,0.1587,0.1585,0.0514,0.0519,0.0588,0.0611,0.0613,0.0555,0.052,0.0432,0.0377,0.0271,0.0254,0.022,0.0273,0.0412,0.0724,0.0885,0.0667,0.1099,0.1231,0.0875,0.0902,0.0902,0.0903,0.1535,0.1541,0.1546,0.1551,0,0.0552,0.0624,0.0639,0.0672,0.0661,0.0611,0.0529,0.0475,0.0374,0.0303,0.0268,0.0276,0.0303,0.0362,0.0454,0.0609,0.07,0.0742,0.1,0.1057,0.0891,0.0894,0.0888,0.089,0.0892,0.0893,0.0895,0,0.0668,0.0647,0.0746,0.0743,0.0697,0.0688,0.0582,0.0544,0.0463,0.0414,0.0401,0.038,0.045,0.0477,0.0562,0.0674,0.0623,0.0814,0.0841,0.1072,0.1098,0.0804,0.0809,0.0757,0.0757,0.0757,0.0757,0,0.074,0.078,0.0789,0.0793,0.0815,0.0752,0.0716,0.0654,0.0606,0.0535,0.0485,0.05,0.0491,0.054,0.0621,0.0649,0.0671,0.0738,0.0837,0.0842,0.108,0.1107,0.0757,0.0757,0.0757,0.0757,0.0757,0,0.0833,0.0888,0.0885,0.09,0.0885,0.0839,0.0752,0.0717,0.0674,0.0639,0.0612,0.0619,0.063,0.0669,0.072,0.0708,0.0749,0.0795,0.0796,0.0864,0.0918,0.1141,0.1189,0.0835,0.0835,0.0836,0.0836,0,0.0909,0.0947,0.0981,0.0944,0.0953,0.0938,0.0893,0.0862,0.0826,0.0774,0.0803,0.0758,0.081,0.0772,0.0793,0.0838,0.0838,0.0851,0.0861,0.0862,0.0901,0.0891,0.1159,0.1183,0.0842,0.0841,0.0841,0,0.0967,0.1069,0.1047,0.1058,0.1049,0.1034,0.0985,0.096,0.0904,0.0885,0.0826,0.085,0.084,0.0844,0.0868,0.0873,0.0854,0.0876,0.0877,0.0855,0.0829,0.0892,0.0894,0.0851,0.085,0.0849,0.0845,0,0.1118,0.1116,0.1102,0.1113,0.1098,0.1068,0.107,0.1029,0.0987,0.0979,0.0936,0.0954,0.0925,0.0943,0.0958,0.0935,0.0928,0.0952,0.094,0.0929,0.0934,0.093,0.0987,0.0988,0.0989,0.099,0,0,0.1144,0.1167,0.1195,0.1193,0.1176,0.1174,0.1145,0.1129,0.1088,0.1061,0.1041,0.1008,0.1013,0.1,0.0995,0.1013,0.0997,0.095,0.0948,0.0943,0.0939,0.0941,0.0936,0.0991,0.0991,0.0991,0.0992,0,0.1212,0.1213,0.1207,0.1212,0.1203,0.1202,0.1185,0.1162,0.1123,0.1085,0.1075,0.1061,0.1019,0.1026,0.1026,0.1022,0.099,0.1007,0.0953,0.0954,0.0948,0.0943,0.0944,0.094,0.0993,0.0993,0.0993,0,0.1264,0.1283,0.1275,0.1288,0.1271,0.126,0.1252,0.1207,0.1177,0.1165,0.1085,0.1083,0.1084,0.1055,0.1035,0.1032,0.0988,0.1001,0.0999,0.0976,0.0978,0.0972,0.0967,0.1027,0.1027,0.1026,0,0,0.1303,0.1305,0.1324,0.1298,0.1296,0.1277,0.1257,0.1226,0.1197,0.1166,0.1125,0.1093,0.1086,0.1055,0.1047,0.1022,0.1023,0.1002,0.1,0.0999,0.0976,0.0977,0.0972,0.1026,0.1026,0.1026,0,0,0.1306,0.1335,0.1334,0.1313,0.131,0.13,0.1259,0.1239,0.1189,0.115,0.1125,0.1112,0.1068,0.1065,0.1058,0.1021,0.1034,0.1035,0.0997,0.0995,0.0994,0.0964,0.1026,0,0,0,0,0,0.1368,0.1348,0.1349,0.1346,0.1325,0.1321,0.1314,0.1258,0.1214,0.1189,0.1148,0.1116,0.106,0.1053,0.1047,0.1012,0.1015,0.1017,0.1018,0.0966,0.0965,0.0963,0,0,0,0,0,0,0.1368,0.1367,0.1349,0.1346,0.134,0.1321,0.1282,0.1267,0.1214,0.1201,0.113,0.1117,0.1098,0.1054,0.1049,0.1015,0.1027,0.1015,0.1017,0.1019,0.0966,0.0964,0.0963,0,0,0,0,0,0.1367,0.1367,0.1344,0.1344,0.1339,0.1277,0.1279,0.1266,0.1205,0.1179,0.1162,0.1156,0.1101,0.1091,0.1051,0.1018,0.1031,0.1029,0.1017,0.1018,0.1019,0.0965,0,0,0,0,0,0,0.1367,0.135,0.1342,0.1338,0.1317,0.1274,0.1264,0.1266,0.1184,0.1169,0.121,0.1201,0.1104,0.1095,0.1088,0.1019,0.1034,0.1032,0.1031,0.1017,0.1019,0.1019,0,0,0,0,0,0,0.135,0.1348,0.134,0.1309,0.1301,0.1271,0.1263,0.1255,0.1182,0.1217,0.1209,0.1207,0.1106,0.1099,0.1093,0.1084,0.1036,0.1034,0.1033,0.1032,0.1018,0.1019,0,0,0,0,0,0,0.1348,0.1346,0.1309,0.1303,0.1296,0.1249,0.126,0.1232,0.1182,0.1221,0.1173,0.117,0.1111,0.1103,0.1097,0.1091,0.1086,0.1036,0.1034,0.1034,0.1033,0,0,0,0,0,0,0,0.1346,0.1376,0.1366,0.1298,0.1292,0.1306,0.1304,0.1303,0.1181,0.1178,0.1174,0.1171,0.1046,0.1044,0.1042,0.1097,0,0,0.1036,0.1035,0,0,0,0,0,0,0,0,0.1375,0.1375,0.1366,0.1366,0.1365,0.1306,0.1304,0.1303,0.1181,0.1178,0.1175,0.1172,0.1045,0.1044,0.1042,0,0,0,0,0,0,0,0,0,0,0,0,0,0,0,0.1366,0.1366,0,0.1305,0.1305,0.1304,0.118,0.1178,0.1176,0.1173,0.1045,0.1044,0.1042,0,0,0,0,0,0,0,0,0,0,0,0,0,0,0,0,0,0,0,0,0,0,0,0,0,0,0,0,0,0,0,0,0,0,0,0,0,0,0,0,0,0,0,0,0,0,0,0,0,0,0,0,0,0,0,0,0,0,0,0,0,0,0,0,0,0,0,0,0]}]],[[{"header":{"parameterUnit":"kt","parameterCategory":2,"dx":1,"dy":1,"la1":30.253999710083008,"la2":30.299108505249023,"lo1":-89.0895004272461,"lo2":-89.04439544677734,"nx":28,"ny":28,"refTime":"2022-09-19T21:00:00:Z","depth":"4","parameterNumber":2,"parameterNumberName":"U-component_of_CURRENTS"},"data":[-0.1082,-0.1096,-0.1141,-0.1054,-0.1027,-0.0999,-0.102,-0.1076,-0.1062,-0.1167,-0.1207,-0.1284,-0.1357,-0.1419,-0.1419,-0.1435,-0.1718,-0.1588,-0.1584,-0.2169,-0.2211,-0.2248,-0.2615,0,0,0,0,0,-0.1156,-0.1163,-0.1191,-0.1221,-0.1221,-0.124,-0.1263,-0.1425,-0.153,-0.1289,-0.1632,-0.1382,-0.142,-0.1463,-0.1452,-0.1545,-0.1889,-0.1521,-0.2013,-0.2195,-0.2242,-0.2583,0,0,0,0,0,0,-0.1298,-0.1281,-0.1426,-0.1444,-0.1454,-0.1403,-0.1558,-0.1571,-0.1751,-0.193,-0.1687,-0.1757,-0.185,-0.1871,-0.173,-0.178,-0.1884,-0.1967,-0.2023,-0.2069,-0.2291,-0.2027,-0.1365,0,0,0,0,0,-0.1406,-0.1532,-0.1598,-0.1652,-0.1721,-0.1779,-0.1993,-0.2004,-0.2438,-0.2617,-0.2412,-0.2403,-0.2097,-0.2202,-0.2141,-0.2077,-0.2643,-0.2366,-0.2397,-0.2896,-0.2723,-0.266,-0.2702,-0.2419,-0.2424,-0.2428,-0.243,0,-0.1594,-0.1629,-0.1819,-0.1837,-0.1959,-0.227,-0.2381,-0.2927,-0.303,-0.321,-0.3058,-0.2954,-0.2967,-0.2523,-0.2731,-0.261,-0.2667,-0.2483,-0.3016,-0.2801,-0.2719,-0.2752,-0.278,-0.2468,-0.2465,-0.2462,-0.2459,0,-0.1674,-0.1828,-0.1869,-0.2141,-0.2208,-0.2405,-0.2787,-0.3001,-0.3523,-0.3626,-0.3726,-0.3881,-0.3616,-0.3639,-0.3517,-0.3471,-0.3254,-0.3075,-0.3325,-0.3238,-0.284,-0.2854,-0.253,-0.2516,-0.2504,-0.2495,-0.2486,0,-0.1839,-0.1888,-0.211,-0.2142,-0.2275,-0.2531,-0.2867,-0.318,-0.3655,-0.3763,-0.4239,-0.4148,-0.4451,-0.4212,-0.4167,-0.3746,-0.3909,-0.362,-0.3504,-0.4033,-0.4037,-0.3895,-0.3885,-0.4041,-0.4047,-0.4052,-0.4056,0,-0.1917,-0.2008,-0.2096,-0.2107,-0.2278,-0.2424,-0.2679,-0.3091,-0.3291,-0.3922,-0.3996,-0.439,-0.4446,-0.4475,-0.422,-0.4339,-0.3959,-0.4105,-0.3657,-0.3616,-0.3921,-0.3902,-0.4063,-0.4063,-0.4065,-0.4067,-0.4069,0,-0.1976,-0.2037,-0.2116,-0.2209,-0.225,-0.2375,-0.2697,-0.2931,-0.3392,-0.3646,-0.4035,-0.4176,-0.4406,-0.4473,-0.4396,-0.4475,-0.4355,-0.4232,-0.4208,-0.3837,-0.3679,-0.3516,-0.3719,-0.3721,-0.3723,-0.3725,-0.3727,0,-0.1977,-0.2064,-0.2113,-0.2188,-0.2187,-0.2296,-0.2495,-0.2699,-0.2977,-0.3331,-0.3605,-0.3944,-0.401,-0.4228,-0.4366,-0.4288,-0.4291,-0.4436,-0.3992,-0.397,-0.367,-0.3808,-0.4446,-0.3753,-0.375,-0.3747,-0.3746,0,-0.1949,-0.2031,-0.2068,-0.2075,-0.217,-0.2223,-0.2391,-0.2597,-0.2823,-0.3057,-0.3379,-0.3707,-0.3911,-0.4018,-0.4153,-0.4239,-0.4283,-0.4158,-0.4154,-0.3813,-0.4136,-0.3855,-0.3808,-0.4425,-0.4429,-0.4433,-0.3764,0,-0.1907,-0.1962,-0.2007,-0.2101,-0.2156,-0.2202,-0.2311,-0.2451,-0.2625,-0.2778,-0.3122,-0.3315,-0.3603,-0.3704,-0.3751,-0.4024,-0.3795,-0.387,-0.3742,-0.3977,-0.3628,-0.3616,-0.3679,-0.3673,-0.3668,-0.3664,0,0,-0.1843,-0.1919,-0.1994,-0.2034,-0.2066,-0.2157,-0.2193,-0.2303,-0.2455,-0.2588,-0.262,-0.304,-0.3151,-0.3443,-0.3569,-0.361,-0.3468,-0.3591,-0.3874,-0.3898,-0.392,-0.3605,-0.3598,-0.3655,-0.3653,-0.3651,-0.365,0,-0.1821,-0.1902,-0.1964,-0.1997,-0.2071,-0.2113,-0.2157,-0.2245,-0.2329,-0.2531,-0.2569,-0.2807,-0.3014,-0.3134,-0.322,-0.3521,-0.333,-0.357,-0.3766,-0.3831,-0.3862,-0.3888,-0.3586,-0.3584,-0.3638,-0.3639,-0.3639,0,-0.1763,-0.1822,-0.1861,-0.1951,-0.2006,-0.2051,-0.2058,-0.2126,-0.2205,-0.2225,-0.2427,-0.2536,-0.263,-0.2851,-0.2954,-0.2901,-0.3171,-0.3187,-0.3214,-0.3164,-0.3217,-0.3256,-0.329,-0.2841,-0.2839,-0.2837,0,0,-0.1743,-0.182,-0.1862,-0.1943,-0.1972,-0.2033,-0.2079,-0.2084,-0.2167,-0.2214,-0.2312,-0.2424,-0.2554,-0.2657,-0.2721,-0.2953,-0.2807,-0.3096,-0.3133,-0.3165,-0.3134,-0.3195,-0.3233,-0.283,-0.2829,-0.2829,0,0,-0.1717,-0.1784,-0.1812,-0.1887,-0.1943,-0.1975,-0.2032,-0.2071,-0.2181,-0.2195,-0.2239,-0.226,-0.2465,-0.2477,-0.2371,-0.2738,-0.2574,-0.2598,-0.2767,-0.2813,-0.285,-0.2787,-0.2274,0,0,0,0,0,-0.1722,-0.1776,-0.1802,-0.1821,-0.1915,-0.1974,-0.1987,-0.2008,-0.2045,-0.2088,-0.2181,-0.2144,-0.2423,-0.2327,-0.2354,-0.2545,-0.2727,-0.2745,-0.2763,-0.3028,-0.3077,-0.3118,0,0,0,0,0,0,-0.1729,-0.175,-0.18,-0.1835,-0.1856,-0.1972,-0.1936,-0.1944,-0.2038,-0.2039,-0.2131,-0.2143,-0.2128,-0.2313,-0.2337,-0.2521,-0.2266,-0.2734,-0.275,-0.2764,-0.3044,-0.3084,-0.3119,0,0,0,0,0,-0.1734,-0.1752,-0.1899,-0.1834,-0.1853,-0.1895,-0.1934,-0.194,-0.2032,-0.2048,-0.2062,-0.2053,-0.2127,-0.2152,-0.2327,-0.2513,-0.2249,-0.2258,-0.2744,-0.2757,-0.2767,-0.3064,0,0,0,0,0,0,-0.1739,-0.1758,-0.1903,-0.191,-0.1814,-0.189,-0.1903,-0.1937,-0.2038,-0.2051,-0.1961,-0.196,-0.2128,-0.2147,-0.2166,-0.2514,-0.2235,-0.2245,-0.225,-0.2754,-0.2763,-0.2772,0,0,0,0,0,0,-0.1749,-0.1763,-0.1907,-0.1881,-0.1884,-0.1885,-0.1896,-0.1996,-0.2041,-0.1947,-0.1948,-0.196,-0.2119,-0.2144,-0.2159,-0.2313,-0.2225,-0.2234,-0.224,-0.2244,-0.2761,-0.2769,0,0,0,0,0,0,-0.1755,-0.1768,-0.1879,-0.1882,-0.1885,-0.1959,-0.1976,-0.2085,-0.198,-0.1944,-0.1975,-0.1973,-0.2117,-0.2131,-0.2154,-0.2301,-0.231,-0.2225,-0.2231,-0.2236,-0.2238,0,0,0,0,0,0,0,-0.1761,-0.1672,-0.1865,-0.1883,-0.1886,-0.197,-0.1971,-0.1973,-0.1979,-0.1978,-0.1976,-0.1974,-0.2175,-0.2185,-0.2194,-0.2291,0,0,-0.2224,-0.2229,0,0,0,0,0,0,0,0,-0.1667,-0.1671,-0.1865,-0.1866,-0.1868,-0.197,-0.1971,-0.1973,-0.1979,-0.1978,-0.1976,-0.1975,-0.2178,-0.2185,-0.2193,0,0,0,0,0,0,0,0,0,0,0,0,0,0,0,-0.1865,-0.1866,0,-0.197,-0.1971,-0.1972,-0.1979,-0.1978,-0.1976,-0.1975,-0.218,-0.2186,-0.2193,0,0,0,0,0,0,0,0,0,0,0,0,0,0,0,0,0,0,0,0,0,0,0,0,0,0,0,0,0,0,0,0,0,0,0,0,0,0,0,0,0,0,0,0,0,0,0,0,0,0,0,0,0,0,0,0,0,0,0,0,0,0,0,0,0,0,0,0,0]}],[{"header":{"parameterUnit":"kt","parameterCategory":2,"dx":1,"dy":1,"la1":30.253999710083008,"la2":30.299108505249023,"lo1":-89.0895004272461,"lo2":-89.04439544677734,"nx":28,"ny":28,"refTime":"2022-09-19T21:00:00:Z","depth":"4","parameterNumber":3,"parameterNumberName":"V-component_of_CURRENTS"},"data":[0.0105,0.0045,-0.0044,-0.0111,-0.0149,-0.0337,-0.0493,-0.0615,-0.0547,-0.0583,-0.0265,-0.0177,0.0406,0.0114,0.0982,0.1082,0.1198,0.1705,0.1714,0.1832,0.1819,0.1808,0.1937,0,0,0,0,0,0.0014,0.0009,-0.0107,-0.0256,-0.0403,-0.0485,-0.0754,-0.0901,-0.1005,-0.0795,-0.0758,-0.0364,0.0246,0.0426,0.0902,0.0892,0.1429,0.1448,0.1539,0.1824,0.181,0.194,0,0,0,0,0,0,-0.0086,-0.0138,-0.0209,-0.0349,-0.0511,-0.066,-0.0828,-0.0864,-0.0899,-0.0775,-0.0759,-0.0326,-0.0116,0.0478,0.0856,0.1305,0.1373,0.1469,0.1474,0.1465,0.1516,0.1158,0.1392,0,0,0,0,0,-0.0164,-0.0192,-0.0312,-0.0449,-0.0593,-0.0806,-0.0965,-0.0974,-0.1021,-0.0956,-0.0728,-0.0347,0.0045,0.0549,0.1011,0.1353,0.158,0.1678,0.1672,0.1763,0.1505,0.1505,0.1472,0.1756,0.1754,0.1753,0.1752,0,-0.0211,-0.0248,-0.0474,-0.0555,-0.0656,-0.0853,-0.0989,-0.1073,-0.1079,-0.0954,-0.0824,-0.0396,-0.0108,0.0539,0.0959,0.146,0.1572,0.1641,0.1737,0.1479,0.1489,0.1458,0.1428,0.1741,0.1742,0.1743,0.1743,0,-0.0214,-0.0315,-0.0471,-0.0707,-0.0797,-0.0916,-0.112,-0.1187,-0.1077,-0.0937,-0.0717,-0.0381,0.0073,0.044,0.0985,0.1172,0.1526,0.1627,0.1202,0.1219,0.1422,0.1397,0.1722,0.1726,0.173,0.1733,0.1735,0,-0.0262,-0.0377,-0.0556,-0.062,-0.0828,-0.0977,-0.1128,-0.1147,-0.1082,-0.1041,-0.0643,-0.0445,0.0164,0.0469,0.0791,0.1186,0.1248,0.1424,0.1471,0.1294,0.1267,0.1372,0.1351,0.1569,0.157,0.1571,0.1572,0,-0.024,-0.0441,-0.0562,-0.0634,-0.0867,-0.0976,-0.1086,-0.1187,-0.1219,-0.0903,-0.0742,-0.0364,0.001,0.0387,0.0818,0.0818,0.1221,0.1251,0.1397,0.1385,0.1369,0.1346,0.1573,0.1573,0.1574,0.1574,0.1574,0,-0.0271,-0.0355,-0.0509,-0.0738,-0.0783,-0.0896,-0.1063,-0.1155,-0.1112,-0.1002,-0.0729,-0.0483,-0.0066,0.0152,0.0606,0.0562,0.0806,0.0943,0.0948,0.1103,0.1067,0.0771,0.0834,0.083,0.0827,0.0823,0.082,0,-0.0231,-0.0352,-0.0408,-0.0582,-0.0662,-0.0731,-0.087,-0.0952,-0.093,-0.0859,-0.0626,-0.0435,-0.0272,-0.0006,0.0244,0.0532,0.069,0.0582,0.0921,0.0923,0.1018,0.1136,0.089,0.0769,0.0775,0.078,0.0783,0,-0.0176,-0.0285,-0.029,-0.0371,-0.0452,-0.0505,-0.0638,-0.0715,-0.0765,-0.0675,-0.0614,-0.0462,-0.0191,-0.0115,0.0085,0.0327,0.0581,0.0513,0.0529,0.0464,0.0971,0.1046,0.1081,0.0842,0.0851,0.0859,0.0748,0,-0.0213,-0.0249,-0.026,-0.0314,-0.0365,-0.0409,-0.046,-0.0497,-0.0471,-0.0463,-0.0409,-0.0224,-0.0049,-0.0044,0.0074,0.0303,0.025,0.0394,0.052,0.0565,0.0476,0.0503,0.0197,0.0199,0.02,0.0201,0,0,-0.0147,-0.0165,-0.0121,-0.0166,-0.0208,-0.0159,-0.0237,-0.0261,-0.0248,-0.0261,-0.019,-0.0073,0.0032,0.0098,0.0138,0.0139,0.0222,0.024,0.0481,0.051,0.0539,0.0464,0.0489,0.0202,0.0203,0.0203,0.0203,0,-0.0134,-0.0095,-0.0112,-0.0133,-0.0129,-0.0135,-0.0136,-0.0121,-0.013,-0.0153,-0.0091,0.0023,0.0046,0.0135,0.0174,0.0146,0.0271,0.0144,0.0212,0.0479,0.0507,0.0534,0.0464,0.0486,0.0206,0.0206,0.0206,0,-0.0103,-0.0074,-0.0077,-0.0055,-0.0042,-0.0096,-0.0009,-0.0018,-0.0084,0.005,0.0008,0.0083,0.0147,0.0167,0.0188,0.0248,0.0365,0.029,0.0285,0.0328,0.061,0.0638,0.0663,0.0359,0.0359,0.036,0,0,-0.0088,-0.0079,-0.0059,-0.0049,-0.0047,-0.0017,-0.0011,-0.0005,0.0021,0.0034,0.0087,0.0139,0.0158,0.0217,0.0216,0.0279,0.0372,0.0307,0.03,0.0294,0.0332,0.061,0.0635,0.0361,0.0361,0.0361,0,0,-0.0081,-0.005,-0.0034,-0.0022,-0.0018,0.0007,0.0007,0.0033,0.0055,0.0061,0.014,0.0156,0.016,0.0229,0.0234,0.0291,0.0321,0.0321,0.027,0.0262,0.0255,0.0292,0.0315,0,0,0,0,0,-0.0057,-0.0057,-0.0043,-0.0036,-0.0001,-0.0003,-0.0001,0.0029,0.0069,0.0058,0.0097,0.0165,0.0233,0.0238,0.0255,0.0281,0.0377,0.0374,0.0372,0.0312,0.0302,0.0294,0,0,0,0,0,0,-0.0054,-0.0046,-0.0043,-0.0015,-0.0007,-0.0002,0.0041,0.0049,0.0069,0.0075,0.015,0.0166,0.0206,0.0236,0.025,0.0274,0.0311,0.0376,0.0374,0.0371,0.0308,0.0301,0.0294,0,0,0,0,0,-0.0052,-0.0045,0.0009,-0.0016,-0.0009,0.0027,0.0043,0.0049,0.0069,0.0132,0.0147,0.0094,0.0204,0.0221,0.0245,0.0266,0.0302,0.0306,0.0375,0.0373,0.0371,0.0305,0,0,0,0,0,0,-0.005,-0.0046,0.0011,0.0013,-0.0002,0.0026,0.0034,0.0049,0.0127,0.0139,0.0078,0.0082,0.0202,0.0216,0.0229,0.0259,0.0294,0.0299,0.0302,0.0373,0.0372,0.037,0,0,0,0,0,0,-0.005,-0.0044,0.0012,0.0027,0.0032,0.0026,0.0033,0.0079,0.013,0.0069,0.0074,0.0079,0.0211,0.0212,0.0222,0.029,0.0289,0.0293,0.0297,0.0299,0.0372,0.0371,0,0,0,0,0,0,-0.0047,-0.0043,0.0027,0.003,0.0034,0.006,0.007,0.0122,0.0089,0.0067,0.0093,0.0095,0.0208,0.0218,0.0217,0.028,0.0287,0.0289,0.0292,0.0294,0.0296,0,0,0,0,0,0,0,-0.0045,-0.0077,-0.0001,0.0032,0.0036,0.0034,0.0035,0.0035,0.0089,0.0091,0.0092,0.0094,0.0262,0.0267,0.0272,0.0272,0,0,0.0288,0.0291,0,0,0,0,0,0,0,0,-0.0079,-0.0077,-0.0001,-0.0,0.0,0.0034,0.0035,0.0035,0.0089,0.0091,0.0092,0.0093,0.0263,0.0267,0.0271,0,0,0,0,0,0,0,0,0,0,0,0,0,0,0,-0.0001,-0.0,0,0.0034,0.0035,0.0035,0.009,0.0091,0.0092,0.0093,0.0264,0.0268,0.0271,0,0,0,0,0,0,0,0,0,0,0,0,0,0,0,0,0,0,0,0,0,0,0,0,0,0,0,0,0,0,0,0,0,0,0,0,0,0,0,0,0,0,0,0,0,0,0,0,0,0,0,0,0,0,0,0,0,0,0,0,0,0,0,0,0,0,0,0,0]}]]]